CZ-4 DEB

基本信息
目录编号:
20898
目录名称:
CZ-4 DEB
国际标识:
1990-081BJ
轨道中心:
EARTH
物体状态:
已陨落(2026-03-07)
发射日期:
1990-09-03 UTC
轨道信息
数据来源: 国际轨道数据
星历时间: 2026-03-07T04:23:46+0800
半长轴: 6602.249km
偏心率: 0.0015132
轨道倾角: 98.072°
近地点辐角: 295.151°
升交点赤经: 155.773°
平近点角: 64.820°
近地点: 214.121km
远地点: 234.103km
周期: 88.981分钟
每日圈数: 16.18322
详细信息
发射场:
TSC
轨道高度:
LEO
数据来源:
AOE Integration Group
参考系:
TEME
时间系统:
UTC
历元类型:
SGP4
2D轨道图
3D轨道图
轨道高度分析图
轨道倾角分析图
轨道综合分析图
查看轨道综合分析图